LKLN Weather Reports


time (UTC)temp
C
wind
direction
speed
KPH
gust
KPH
rain 1hr
cm
rain 24hr
cm
rain mn
cm
humidity
%
barometer
mb
20260505222804 12 250 9.7 0.0 0.00 0.00 0.00 100 1007.0
20260505215804 12 250 8.0 0.0 0.00 0.00 0.00 100 1007.0
20260505212803 12 280 9.7 0.0 0.00 0.00 0.00 100 1007.0
20260505205804 12 270 9.7 0.0 0.00 0.00 0.00 100 1007.0
20260505202803 13 260 4.8 0.0 0.00 0.00 0.00 100 1007.0
20260505195804 12 0 3.2 0.0 0.00 0.00 0.00 100 1006.0
20260505192805 13 320 9.7 0.0 0.00 0.00 0.00 100 1006.0
20260505191318 13 0 8.0 0.0 0.00 0.00 0.00 100 1006.0
20260505185804 15 280 12.9 0.0 0.00 0.00 0.00 93 1005.0
20260505185018 15 270 14.5 0.0 0.00 0.00 0.00 93 1005.0
20260505184704 15 260 14.5 0.0 0.00 0.00 0.00 93 1005.0
20260505182904 17 200 22.5 0.0 0.00 0.00 0.00 82 1005.0
20260505181703 16 190 19.3 0.0 0.00 0.00 0.00 87 1005.0
20260505175805 17 40 9.7 0.0 0.00 0.00 0.00 77 1004.0
20260505172805 17 30 9.7 0.0 0.00 0.00 0.00 82 1004.0
20260505170517 18 100 4.8 0.0 0.00 0.00 0.00 68 1004.0
20260505165805 20 0 8.0 0.0 0.00 0.00 0.00 60 1004.0
20260505162804 22 360 11.3 0.0 0.00 0.00 0.00 46 1004.0
20260505152804 25 0 4.8 0.0 0.00 0.00 0.00 27 1004.0
20260505122804 23 110 8.0 0.0 0.00 0.00 0.00 36 1006.0
20260505115804 25 180 9.7 0.0 0.00 0.00 0.00 36 1006.0
20260505112804 23 0 4.8 0.0 0.00 0.00 0.00 38 1006.0
20260505095804 22 180 4.8 0.0 0.00 0.00 0.00 43 1007.0
20260505092803 22 0 1.6 0.0 0.00 0.00 0.00 46 1008.0
20260505085804 21 0 3.2 0.0 0.00 0.00 0.00 46 1008.0
20260505082804 20 0 3.2 0.0 0.00 0.00 0.00 49 1008.0
20260505075804 20 0 3.2 0.0 0.00 0.00 0.00 52 1008.0
20260505072803 18 0 1.6 0.0 0.00 0.00 0.00 52 1009.0
20260505065804 17 90 4.8 0.0 0.00 0.00 0.00 59 1009.0
20260505062805 17 80 8.0 0.0 0.00 0.00 0.00 63 1009.0
20260505055804 16 40 4.8 0.0 0.00 0.00 0.00 67 1009.0
20260505052804 15 0 3.2 0.0 0.00 0.00 0.00 72 1009.0
20260505035804 13 0 3.2 0.0 0.00 0.00 0.00 71 1009.0
20260505032804 13 0 1.6 0.0 0.00 0.00 0.00 71 1009.0
20260505025905 12 0 3.2 0.0 0.00 0.00 0.00 76 1009.0
20260505022804 12 0 0.0 0.0 0.00 0.00 0.00 76 1009.0
20260505015804 13 0 0.0 0.0 0.00 0.00 0.00 71 1010.0
20260505012804 13 0 0.0 0.0 0.00 0.00 0.00 67 1010.0
20260505005804 13 0 3.2 0.0 0.00 0.00 0.00 67 1010.0
20260505002805 15 280 1.6 0.0 0.00 0.00 0.00 62 1010.0
20260504235805 15 0 3.2 0.0 0.00 0.00 0.00 62 1010.0
20260504232805 17 10 4.8 0.0 0.00 0.00 0.00 55 1011.0
20260504225804 16 20 4.8 0.0 0.00 0.00 0.00 59 1011.0